Location: Kapuskasing
(49.3803°N, 82.4001°W)
Time: 10:21:38
(UTC-04:00)

Envisat - Pass Details

Date: 14 March 2026
Orbit: 761 x 762 km, 98.4° (Epoch: 11 April)

Event Time Altitude Azimuth Distance (km) Brightness Sun altitude
Rises 06:01:04 0° 2° (N) 3,237 6.5 -17.5°
Reaches altitude 10° 06:04:11 10° 342° (NNW) 2,306 5.5 -17.1°
Maximum altitude 06:07:12 16° 305° (NW) 1,905 4.7 -16.6°
Enters shadow 06:07:35 16° 300° (WNW) 1,911 4.7 -16.5°
